Location: Arrecife
(10.5858°N, 67.0742°W)
Time: 08:55:01
(UTC+00:00)

Meteor 1-19 Rocket - Visible Passes

Search period start: 26 June 2022 00:00
Search period end: 06 July 2022 00:00
Orbit: 810 x 924 km, 81.2° (Epoch: 25 June)

Date Brightness Start Highest point End Pass type
(mag) Time Alt. Az. Time Alt. Az. Time Alt. Az.
26 Jun 4.3 09:06:17 10° N 09:12:17 76° W 09:18:14 10° S visible
27 Jun 4.3 08:59:17 10° N 09:05:17 75° W 09:11:13 10° S visible
28 Jun 4.3 08:52:18 10° N 08:58:17 73° W 09:04:12 10° S visible
29 Jun 4.3 08:45:19 10° NNW 08:51:18 72° W 08:57:12 10° S visible
30 Jun 4.3 08:38:20 10° NNW 08:44:18 70° W 08:50:11 10° S visible
01 Jul 4.2 08:31:20 10° NNW 08:37:18 69° W 08:41:59 17° S visible
02 Jul 4.2 08:24:21 10° NNW 08:30:18 67° W 08:33:08 32° SSW visible
03 Jul 4.2 08:17:22 10° NNW 08:23:18 66° W 08:24:37 51° SSW visible
04 Jul 4.2 08:10:23 10° NNW 08:16:18 64° W 08:16:21 64° W visible
05 Jul 4.6 08:03:24 10° NNW 08:08:15 54° NW 08:08:15 54° NW visible
